Radiation Dose measured at exhaust stack monitor of Fukushima Daiichi Nuclear Power Station
Date,Time,Unit 5 6 shared exhaust cylinders,Wind Direction,Wind Velocity(m/s)
2021/04/14,00:00,3.7,south,6.4
2021/04/14,00:10,4.0,south,7.1
2021/04/14,00:20,3.9,south,10.2
2021/04/14,00:30,4.0,south,10.6
2021/04/14,00:40,3.7,south-southwest,9.1
2021/04/14,00:50,3.9,south-southwest,10.5
2021/04/14,01:00,4.1,south,8.8
2021/04/14,01:10,4.0,south,7.5
2021/04/14,01:20,4.2,south-southwest,5.9
2021/04/14,01:30,4.0,south,7.0
2021/04/14,01:40,4.1,south,6.0
2021/04/14,01:50,4.0,south-southwest,5.3
2021/04/14,02:00,3.9,south,4.8
2021/04/14,02:10,4.0,south,4.2
2021/04/14,02:20,4.2,south,4.1
2021/04/14,02:30,4.0,south-southeast,7.2
2021/04/14,02:40,4.0,south-southeast,8.4
2021/04/14,02:50,3.9,south,7.1
2021/04/14,03:00,3.9,south-southwest,7.0
2021/04/14,03:10,3.8,south,7.1
2021/04/14,03:20,3.9,south,6.0
2021/04/14,03:30,4.0,south,5.7
2021/04/14,03:40,3.9,south,6.0
2021/04/14,03:50,3.9,south,5.9
2021/04/14,04:00,4.0,south,5.2
2021/04/14,04:10,3.7,south,5.4
2021/04/14,04:20,4.0,south,4.7
2021/04/14,04:30,3.8,south-southwest,4.9
2021/04/14,04:40,3.8,south-southwest,5.0
2021/04/14,04:50,4.0,south-southwest,4.9
2021/04/14,05:00,3.8,south-southwest,4.9
2021/04/14,05:10,4.0,south-southwest,4.4
2021/04/14,05:20,3.8,southwest,4.2
2021/04/14,05:30,3.8,southwest,4.0
2021/04/14,05:40,3.9,southwest,4.3
2021/04/14,05:50,3.8,west-southwest,3.7
2021/04/14,06:00,4.0,west,3.3
2021/04/14,06:10,4.0,west,2.9
2021/04/14,06:20,4.0,west-northwest,3.1
2021/04/14,06:30,3.9,west-southwest,1.9
2021/04/14,06:40,3.9,west-northwest,1.7
2021/04/14,06:50,3.8,northwest,3.3
2021/04/14,07:00,3.9,west,0.9
2021/04/14,07:10,4.1,northeast,1.2
2021/04/14,07:20,3.9,-,CALM
2021/04/14,07:30,4.1,west-northwest,2.0
2021/04/14,07:40,4.0,west,3.0
2021/04/14,07:50,3.8,west-northwest,3.4
2021/04/14,08:00,3.9,northwest,4.0
2021/04/14,08:10,3.9,northwest,4.6
2021/04/14,08:20,4.1,west-northwest,3.9
2021/04/14,08:30,3.9,north-northwest,4.8
2021/04/14,08:40,4.0,north,7.2
2021/04/14,08:50,4.0,north,7.8
2021/04/14,09:00,4.0,north,9.2
2021/04/14,09:10,4.0,north,7.8
2021/04/14,09:20,3.9,north,7.3
2021/04/14,09:30,4.0,north,6.1
2021/04/14,09:40,4.0,north,5.7
2021/04/14,09:50,3.8,north-northwest,5.3
2021/04/14,10:00,3.9,north,5.4
2021/04/14,10:10,4.0,north-northeast,3.8
2021/04/14,10:20,3.9,north-northeast,6.3
2021/04/14,10:30,3.9,north-northeast,7.6
2021/04/14,10:40,4.0,north,6.6
2021/04/14,10:50,4.2,north,7.2
2021/04/14,11:00,3.9,north,7.2
2021/04/14,11:10,3.9,north,7.4
2021/04/14,11:20,3.9,north-northeast,6.8
2021/04/14,11:30,4.0,north-northeast,6.5
2021/04/14,11:40,3.9,north,6.4
2021/04/14,11:50,3.9,north-northeast,6.3
2021/04/14,12:00,3.8,north-northeast,7.3
2021/04/14,12:10,4.1,north,8.2
2021/04/14,12:20,3.8,north,7.5
2021/04/14,12:30,3.9,north-northeast,7.4
2021/04/14,12:40,3.9,north-northeast,8.6
2021/04/14,12:50,4.0,north-northeast,8.7
2021/04/14,13:00,3.9,north-northeast,8.5
2021/04/14,13:10,3.8,north-northeast,9.0
2021/04/14,13:20,4.0,north-northeast,9.2
2021/04/14,13:30,4.0,northeast,8.0
2021/04/14,13:40,4.1,-,CALM
2021/04/14,13:50,3.9,north,9.2
2021/04/14,14:00,4.0,north,9.8
2021/04/14,14:10,4.0,north,10.2
2021/04/14,14:20,3.9,north,7.3
2021/04/14,14:30,3.7,north,8.0
2021/04/14,14:40,4.0,north,9.8
2021/04/14,14:50,4.0,north,10.7
2021/04/14,15:00,3.8,north-northeast,8.9
2021/04/14,15:10,4.0,north-northeast,9.3
2021/04/14,15:20,3.9,north-northeast,9.5
2021/04/14,15:30,3.8,north,7.6
2021/04/14,15:40,4.0,north,7.2
2021/04/14,15:50,3.9,north,7.1
2021/04/14,16:00,3.9,north,6.8
2021/04/14,16:10,3.9,north,8.2
2021/04/14,16:20,3.9,north,11.6
2021/04/14,16:30,4.0,north,10.5
2021/04/14,16:40,3.7,north,11.6
2021/04/14,16:50,3.9,north,9.5
2021/04/14,17:00,3.9,north,9.3
2021/04/14,17:10,3.8,north,7.3
2021/04/14,17:20,3.9,north,7.9
2021/04/14,17:30,4.0,north,8.1
2021/04/14,17:40,4.0,north,9.2
2021/04/14,17:50,3.9,north,8.2
2021/04/14,18:00,4.1,north,9.6
2021/04/14,18:10,3.9,north,8.5
2021/04/14,18:20,4.0,north-northwest,7.9
2021/04/14,18:30,4.0,north-northwest,9.6
2021/04/14,18:40,4.0,north-northwest,7.9
2021/04/14,18:50,4.1,north,5.9
2021/04/14,19:00,4.0,north-northwest,8.0
2021/04/14,19:10,4.0,north-northwest,8.3
2021/04/14,19:20,4.1,north-northwest,7.8
2021/04/14,19:30,4.1,north-northwest,9.1
2021/04/14,19:40,3.9,north-northwest,9.8
2021/04/14,19:50,4.0,north-northwest,11.0
2021/04/14,20:00,3.9,north,8.9
2021/04/14,20:10,3.8,north-northwest,8.4
2021/04/14,20:20,3.8,north-northwest,9.6
2021/04/14,20:30,4.0,north-northwest,7.8
2021/04/14,20:40,3.7,north-northwest,8.3
2021/04/14,20:50,3.8,north-northwest,8.2
2021/04/14,21:00,3.9,north-northwest,8.0
2021/04/14,21:10,4.0,north-northwest,6.9
2021/04/14,21:20,3.9,north-northwest,7.0
2021/04/14,21:30,3.9,north-northwest,6.3
2021/04/14,21:40,4.1,north-northwest,6.7
2021/04/14,21:50,3.8,north-northwest,8.1
2021/04/14,22:00,3.9,north-northwest,8.5
2021/04/14,22:10,4.0,north-northwest,6.3
2021/04/14,22:20,3.9,north-northwest,7.9
2021/04/14,22:30,4.0,north-northwest,7.2
2021/04/14,22:40,4.1,north-northwest,7.7
2021/04/14,22:50,3.9,north-northwest,7.8
2021/04/14,23:00,4.0,north-northwest,6.7
2021/04/14,23:10,3.9,north-northwest,6.8
2021/04/14,23:20,3.8,north-northwest,6.9
2021/04/14,23:30,3.9,north-northwest,8.9
2021/04/14,23:40,4.0,north-northwest,7.0
2021/04/14,23:50,3.9,north-northwest,6.6
